This is the latest recevied weather packets stored in our database for station/object KC5DAQ-25. If no packets are shown the sender has not sent any weather packets the latest 10 day(s).
| Time | Temp. | Humidity | Pressure | Rain* | Wind** | Luminosity | Snow |
|---|---|---|---|---|---|---|---|
| 1777403134 | 32.78° C | 66% | 1004.1 hPa | 0 mm | - | 992 W/m² | - |
| 1777403073 | 32.78° C | 65% | 1004 hPa | 0 mm | - | 992 W/m² | - |
| 1777403013 | 32.22° C | 68% | 1004 hPa | 0 mm | - | 992 W/m² | - |
| 1777402953 | 32.22° C | 68% | 1003.9 hPa | 0 mm | - | 1313 W/m² | - |
| 1777402894 | 31.67° C | 68% | 1003.9 hPa | 0 mm | - | 1313 W/m² | - |
| 1777402835 | 31.67° C | 68% | 1003.9 hPa | 0 mm | - | 1111 W/m² | - |
| 1777402773 | 31.67° C | 68% | 1003.9 hPa | 0 mm | - | 876 W/m² | - |
| 1777402715 | 31.67° C | 66% | 1003.9 hPa | 0 mm | - | 876 W/m² | - |
| 1777402653 | 31.67° C | 66% | 1003.9 hPa | 0 mm | - | 876 W/m² | - |
| 1777402594 | 31.67° C | 65% | 1004 hPa | 0 mm | - | 876 W/m² | - |
| 1777402534 | 31.67° C | 65% | 1004 hPa | 0 mm | - | 542 W/m² | - |
| 1777402473 | 31.67° C | 65% | 1004 hPa | 0 mm | - | 542 W/m² | - |
| 1777402412 | 31.67° C | 66% | 1004 hPa | 0 mm | - | 542 W/m² | - |
| 1777402353 | 31.67° C | 66% | 1004 hPa | 0 mm | - | 542 W/m² | - |
| 1777402293 | 31.67° C | 65% | 1004 hPa | 0 mm | - | 542 W/m² | - |
| 1777402233 | 31.67° C | 65% | 1004 hPa | 0 mm | - | 542 W/m² | - |
| 1777402172 | 31.67° C | 67% | 1004 hPa | 0 mm | - | 550 W/m² | - |
| 1777402112 | 31.67° C | 66% | 1004 hPa | 0 mm | - | 849 W/m² | - |
| 1777402052 | 31.67° C | 67% | 1004.1 hPa | 0 mm | - | 849 W/m² | - |
| 1777401993 | 31.67° C | 67% | 1004.1 hPa | 0 mm | - | 849 W/m² | - |
| 1777401933 | 31.67° C | 67% | 1004.1 hPa | 0 mm | - | 596 W/m² | - |
| 1777401872 | 31.67° C | 65% | 1004.1 hPa | 0 mm | - | 596 W/m² | - |
| 1777401813 | 31.67° C | 66% | 1004.2 hPa | 0 mm | - | 607 W/m² | - |
| 1777401753 | 31.67° C | 66% | 1004 hPa | 0 mm | - | 519 W/m² | - |
| 1777401739 | 32.22° C | 65% | 1004.1 hPa | 0 mm | - | 517 W/m² | - |
* Rain latest hour (hover to see other rain measurements)
** Current wind speed in m/s (hover to see current wind gust speed)